Miscellaneous Local Product
Issued by NWS Hastings, NE

Home | Current Version | Previous Version | Text Only | Print | Product List | Glossary Off
Versions: 1 2 3 4 5 6 7 8 9 10 11 12 13 14 15 16 17 18 19 20 21 22 23 24 25 26 27 28 29 30 31 32 33 34 35 36 37 38 39 40 41 42 43 44 45 46 47 48 49 50

623
AXUS43 KGID 231202
MISGRI

GID CWA HOURLY WEATHER ROUNDUP
NATIONAL WEATHER SERVICE HASTINGS NE
600 AM CST MON JAN 23 2017

NOTE: "FAIR" INDICATES FEW OR NO CLOUDS BELOW 12,000 FEET WITH NO
SIGNIFICANT WEATHER AND/OR OBSTRUCTIONS TO VISIBILITY.

...SOUTH CENTRAL NEBRASKA...

CITY           SKY/WX    TMP DP  RH WIND       PRES   REMARKS
GRAND ISLAND   PTCLDY    25  25 100 E8        29.86F WCI  16
HASTINGS       PTCLDY    29  25  85 E7        29.85F WCI  22
KEARNEY        CLEAR     27  23  86 CALM      29.84R
ORD            CLOUDY    21  18  88 CALM      29.84S
YORK           FOG       27  27 100 E6        29.89S VSB 1/2 WCI  20
AURORA         CLOUDY    26  26 100 E7        29.87S WCI  18
LEXINGTON      CLOUDY    27  25  92 CALM      29.82R
HOLDREGE       CLEAR     27  23  86 SE6       29.83R WCI  20
HEBRON         PTCLDY    23  23  99 E3        29.88F

...NEBRASKA PANHANDLE...

CITY           SKY/WX    TMP DP  RH WIND       PRES   REMARKS
CHADRON        CLOUDY    26  19  74 S6        29.68F WCI  19
ALLIANCE       CLOUDY    28  22  78 S7        29.69F WCI  21
SCOTTSBLUFF    CLOUDY    28  21  75 E5        29.68F WCI  23
SIDNEY         CLOUDY    31  21  66 SE10      29.68F WCI  22

...WESTERN AND NORTH CENTRAL NEBRASKA...

CITY           SKY/WX    TMP DP  RH WIND       PRES   REMARKS
VALENTINE      PTCLDY    19  16  88 NE3       29.77F
AINSWORTH      PTCLDY    21  21  98 CALM      29.79R
ONEILL         FOG       26  26  99 CALM      29.85R VSB 1
BROKEN BOW     CLEAR     27  25  92 CALM      29.81R
IMPERIAL       PTCLDY    30  25  81 SE6       29.76F WCI  24
NORTH PLATTE   MOCLDY    23  19  85 CALM      29.79F
MCCOOK         PTCLDY    24  22  91 CALM      29.80F

...EASTERN NEBRASKA...

CITY           SKY/WX    TMP DP  RH WIND       PRES   REMARKS
NORFOLK        CLOUDY    29  24  82 CALM      29.86S
SO SIOUX CITY  CLOUDY    33  28  81 NW5       29.87F WCI  29
TEKAMAH        CLOUDY    32  28  85 N5        29.88F WCI  27
COLUMBUS       CLOUDY    30  25  80 CALM      29.89S
ALBION         CLOUDY    27  24  89 CALM      29.87S FOG
OMAHA EPPLEY   CLOUDY    32  26  78 NW7       29.89S WCI  26
OFFUTT AFB     CLOUDY    32  31  99 NW7       29.89F WCI  25
MILLARD        CLOUDY    34  29  83 N3        29.89F
LINCOLN        CLOUDY    30  27  88 CALM      29.91F
NEBRASKA CITY  CLOUDY    31  28  90 N6        29.89S WCI  25
BEATRICE       CLOUDY    29  29  99 E5        29.90F FOG     WCI  24
FALLS CITY     CLOUDY    31  29  92 N6        29.91R FOG     WCI  25

...NORTHERN KANSAS...

CITY           SKY/WX    TMP DP  RH WIND       PRES   REMARKS
GOODLAND       CLOUDY    29  25  85 S8        29.75S WCI  21
HILL CITY      CLOUDY    27  25  92 N5        29.83F WCI  22
NORTON         SUNNY     28  23  80 SW5       29.82S WCI  23
PHILLIPSBURG   CLEAR     25  25 100 CALM      29.85S
SMITH CENTER   CLEAR     27  25  93 E6        29.86S WCI  20
HAYS           PTCLDY    24  23  96 CALM      29.85F
RUSSELL        CLEAR     24  22  91 SW8       29.84F WCI  15
CONCORDIA      CLEAR     26  25  96 S3        29.87F
SALINA           N/A    N/A N/A N/A MISG        N/A
TOPEKA         PTCLDY    28  24  85 CALM      29.91R FOG



USA.gov is the U.S. government's official web portal to all federal, state and local government web resources and services.